• Join FlightAware (Why Join?)
  • Login
  • US Flag GB Flag 
09:24 EDT


 

Airport Tracker/Info


-or-


 

Live Flight TrackerFlight Track Log ✈ N3KP ✈ 17-Apr-2013 ✈ KPBX - KUWL

Flight Track Log - Related Links

Times and Time Zones

All times are in EDT time to prevent confusion due to time zone crossing. See the N3KP flight status page for this flight to view local times or setup timezone preferences in your user account.

Time Position Orientation Groundspeed Altitude Reporting Facility
EDT Latitude Longitude Course Direction KTS MPH feet Rate Location/Type
14:19 37.6656 -82.6875 316° Northwest 101 116 5,200  Level Indianapolis Center
14:20 37.6867 -82.7114 318° Northwest 102 117 5,900 600 Climbing Indianapolis Center
14:21 37.7069 -82.7339 319° Northwest 99 114 6,500 540 Climbing Indianapolis Center
14:22 37.7267 -82.7567 318° Northwest 98 113 7,100 600 Climbing Indianapolis Center
14:23 37.7514 -82.7844 318° Northwest 100 115 7,800 600 Climbing Indianapolis Center
14:24 37.7438 -82.7771 322° Northwest  Level FlightAware Approximate
14:24 37.7728 -82.8086 318° Northwest 103 119 8,400  Level Indianapolis Center
14:26 37.7939 -82.8331 318° Northwest 102 117 8,900 540 Climbing Indianapolis Center
14:27 37.8156 -82.8572 319° Northwest 104 120 9,600 600 Climbing Indianapolis Center
14:28 37.8367 -82.8828 316° Northwest 105 121 10,200 480 Climbing Indianapolis Center
14:29 37.8575 -82.9072 317° Northwest 104 120 10,700 480 Climbing Indianapolis Center
14:30 37.8789 -82.9314 318° Northwest 104 120 11,200 540 Climbing Indianapolis Center
14:31 37.9039 -82.9603 318° Northwest 103 119 11,900 360 Climbing Indianapolis Center
14:32 37.9256 -82.9856 317° Northwest 105 121 12,000  Climbing Indianapolis Center
14:33 37.9547 -83.0164 320° Northwest 126 145 12,000  Level Indianapolis Center
14:34 37.9853 -83.0542 316° Northwest 147 169 12,000  Level Indianapolis Center
14:35 38.0153 -83.0908 316° Northwest 150 173 12,000  Level Indianapolis Center
14:36 38.0450 -83.1258 317° Northwest 147 169 12,000  Level Indianapolis Center
14:37 38.0800 -83.1650 319° Northwest 146 168 12,000  Level Indianapolis Center
14:38 38.1086 -83.1989 317° Northwest 143 165 12,000  Level Indianapolis Center
14:39 38.1367 -83.2325 317° Northwest 141 162 12,000  Level Indianapolis Center
14:40 38.1667 -83.2653 319° Northwest 142 163 12,000  Level Indianapolis Center
14:41 38.1950 -83.2997 316° Northwest 142 163 12,000  Level Indianapolis Center
14:42 38.2247 -83.3331 319° Northwest 142 163 12,000  Level Indianapolis Center
14:43 38.2586 -83.3717 318° Northwest 141 162 12,000  Level Indianapolis Center
14:44 38.2875 -83.4069 316° Northwest 142 163 12,000  Level Indianapolis Center
14:45 38.3147 -83.4397 317° Northwest 138 159 12,000  Level Indianapolis Center
14:46 38.3453 -83.4733 319° Northwest 143 165 12,000  Level Indianapolis Center
14:47 38.3736 -83.5092 315° West 143 165 12,000  Level Indianapolis Center
14:48 38.4072 -83.5494 317° Northwest 141 162 12,000  Level Indianapolis Center
14:49 38.4367 -83.5836 318° Northwest 143 165 12,000  Level Indianapolis Center
14:50 38.4658 -83.6189 317° Northwest 144 166 12,000  Level Indianapolis Center
14:51 38.4950 -83.6528 318° Northwest 143 165 12,000  Level Indianapolis Center
14:52 38.5264 -83.6858 321° Northwest 146 168 12,000  Level Indianapolis Center
14:53 38.5553 -83.7222 315° West 145 167 12,000  Level Indianapolis Center
14:54 38.5889 -83.7625 317° Northwest 144 166 12,000  Level Indianapolis Center
14:55 38.6192 -83.7975 318° Northwest 146 168 12,000  Level Indianapolis Center
14:56 38.6469 -83.8322 316° Northwest 147 169 12,000  Level Indianapolis Center
14:57 38.6767 -83.8669 318° Northwest 145 167 12,000  Level Indianapolis Center
14:58 38.7072 -83.9039 317° Northwest 148 170 12,000  Level Indianapolis Center
14:59 38.7369 -83.9414 315° West 148 170 12,000  Level Indianapolis Center
15:01 38.7714 -83.9806 318° Northwest 145 167 12,000  Level Indianapolis Center
15:02 38.8028 -84.0167 318° Northwest 148 170 12,000  Level Indianapolis Center
15:03 38.8331 -84.0536 316° Northwest 148 170 12,000  Level Indianapolis Center
15:04 38.8633 -84.0911 316° Northwest 150 173 12,000  Level Indianapolis Center
15:05 38.8925 -84.1272 316° Northwest 145 167 12,000  Level Indianapolis Center
15:06 38.9233 -84.1619 319° Northwest 146 168 12,000  Level Indianapolis Center
15:07 38.9531 -84.1997 315° West 147 169 12,000  Level Indianapolis Center
15:08 38.9842 -84.2353 318° Northwest 148 170 12,000  Level Indianapolis Center
15:09 39.0189 -84.2772 317° Northwest 147 169 12,000  Level Indianapolis Center
15:10 39.0494 -84.3131 318° Northwest 147 169 12,000  Level Indianapolis Center
15:11 39.0797 -84.3486 318° Northwest 146 168 12,000  Level Indianapolis Center
15:12 39.1089 -84.3869 314° West 147 169 12,000  Level Indianapolis Center
15:13 39.1389 -84.4225 317° Northwest 147 169 12,000  Level Indianapolis Center
15:14 39.1700 -84.4589 318° Northwest 150 173 12,000 -240 Level Indianapolis Center
15:15 39.2011 -84.4964 317° Northwest 152 175 11,600 -420 Descending Indianapolis Center
15:16 39.2350 -84.5381 316° Northwest 161 185 11,200 -540 Descending Indianapolis Center
15:17 39.2767 -84.5872 318° Northwest 167 192 10,600 -660 Descending Indianapolis Center
15:18 39.3125 -84.6311 317° Northwest 171 197 9,900 -720 Descending Indianapolis Center
15:18 39.3333 -84.6500 325° Northwest 178 205 9,600 -600 Descending Cincinnati TRACON
15:20 39.3667 -84.7000 311° West 179 206 9,000 -600 Descending Cincinnati TRACON
15:20 39.3856 -84.7203 320° Northwest 177 204 8,700 -540 Descending Indianapolis Center
15:21 39.4217 -84.7631 318° Northwest 177 204 8,200 -360 Descending Indianapolis Center
15:22 39.4550 -84.8058 315° West 173 199 8,000 -120 Descending Indianapolis Center
15:23 39.4825 -84.8433 314° West 162 186 8,000  Level Indianapolis Center
15:24 39.5136 -84.8778 320° Northwest 152 175 8,000 -300 Level Indianapolis Center
15:25 39.5475 -84.9206 316° Northwest 146 168 7,400 -600 Descending Indianapolis Center
15:26 39.5831 -84.9606 319° Northwest 154 177 6,800 -600 Descending Indianapolis Center
15:27 39.6211 -84.9981 323° Northwest 161 185 6,200 -660 Descending Indianapolis Center
15:28 39.6603 -85.0356 324° Northwest 167 192 5,500 -720 Descending Indianapolis Center
15:29 39.6972 -85.0742 321° Northwest 169 194 4,800 -780 Descending Indianapolis Center
15:31 39.7833 -85.1333 332° Northwest 181 208 3,200 -600 Descending Indianapolis TRACON
15:33 39.8333 -85.1667 333° Northwest 150 173 3,000 -240 Descending Indianapolis TRACON
15:34 39.8500 -85.2000 303° West 130 150 2,800 -240 Descending Indianapolis TRACON